TimeAKDT,TemperatureF,Dew PointF,Humidity,Sea Level PressureIn,VisibilityMPH,Wind Direction,Wind SpeedMPH,Gust SpeedMPH,PrecipitationIn,Events,Conditions,WindDirDegrees,DateUTC
12:22 AM,39.2,33.8,81,30.36,10.0,Calm,Calm,-,0.00,Rain,Light Rain,0,2012-10-02 08:22:00
12:53 AM,39.0,36.0,89,30.37,10.0,North,5.8,-,0.01,Rain,Light Rain,10,2012-10-02 08:53:00
1:53 AM,39.0,37.0,93,30.36,10.0,North,8.1,-,0.00,,Overcast,10,2012-10-02 09:53:00
2:00 AM,39.2,37.4,93,30.35,10.0,NNE,8.1,-,N/A,,Overcast,20,2012-10-02 10:00:00
2:53 AM,39.0,37.9,96,30.35,10.0,NNE,5.8,-,0.00,,Overcast,20,2012-10-02 10:53:00
3:53 AM,39.9,37.9,93,30.34,10.0,NNE,10.4,-,0.01,,Overcast,20,2012-10-02 11:53:00
4:53 AM,39.9,37.0,89,30.33,10.0,North,9.2,-,0.00,,Overcast,10,2012-10-02 12:53:00
5:53 AM,39.9,37.0,89,30.32,10.0,NNE,8.1,-,0.00,,Overcast,20,2012-10-02 13:53:00
6:53 AM,41.0,37.9,89,30.32,10.0,North,4.6,-,0.00,,Overcast,360,2012-10-02 14:53:00
7:53 AM,41.0,37.9,89,30.32,10.0,NNW,3.5,-,N/A,,Overcast,330,2012-10-02 15:53:00
8:53 AM,41.0,39.0,93,30.31,10.0,North,8.1,-,0.00,,Overcast,350,2012-10-02 16:53:00
9:53 AM,42.1,39.0,89,30.30,10.0,NNE,5.8,-,N/A,,Overcast,20,2012-10-02 17:53:00
10:53 AM,42.1,39.0,89,30.30,10.0,NNE,5.8,-,N/A,,Overcast,30,2012-10-02 18:53:00
11:53 AM,43.0,39.9,89,30.29,10.0,NNE,4.6,-,N/A,,Mostly Cloudy,20,2012-10-02 19:53:00
12:53 PM,45.0,42.1,90,30.27,10.0,NNE,4.6,-,0.00,Rain,Light Rain,20,2012-10-02 20:53:00
1:53 PM,46.9,41.0,80,30.26,10.0,NE,6.9,-,0.00,,Overcast,40,2012-10-02 21:53:00
2:53 PM,48.0,39.9,74,30.24,10.0,NNE,5.8,-,N/A,,Overcast,30,2012-10-02 22:53:00
3:53 PM,46.9,43.0,86,30.22,10.0,North,6.9,-,0.00,Rain,Light Rain,350,2012-10-02 23:53:00
4:53 PM,46.0,44.1,93,30.22,10.0,North,8.1,-,0.03,Rain,Light Rain,360,2012-10-03 00:53:00
5:53 PM,46.0,45.0,96,30.21,10.0,NNW,4.6,-,0.01,,Overcast,340,2012-10-03 01:53:00
6:53 PM,45.0,43.0,93,30.20,10.0,NNW,8.1,-,N/A,,Overcast,340,2012-10-03 02:53:00
7:53 PM,44.1,43.0,96,30.21,10.0,NNW,5.8,-,0.00,,Overcast,340,2012-10-03 03:53:00
8:53 PM,43.0,41.0,93,30.21,10.0,NE,4.6,-,0.00,,Overcast,40,2012-10-03 04:53:00
9:53 PM,43.0,41.0,93,30.21,10.0,North,4.6,-,N/A,,Overcast,10,2012-10-03 05:53:00
10:53 PM,43.0,39.0,86,30.22,10.0,NNE,5.8,-,N/A,,Overcast,20,2012-10-03 06:53:00
11:53 PM,42.1,37.9,85,30.22,10.0,NNE,6.9,-,N/A,,Overcast,20,2012-10-03 07:53:00